Regional Weather Roundup
Issued by NWS Newport/Morehead, NC

Home | Current Version | Previous Version | Text Only | Print | Product List | Glossary On
Versions: 1 2 3 4 5 6 7 8 9 10 11 12 13 14 15 16 17 18 19 20 21 22 23 24 25 26 27 28 29 30 31 32 33 34 35 36 37 38 39 40 41 42 43 44 45 46 47 48 49 50
000
ASUS42 KMHX 220825
RWRMHX
WEATHER ROUNDUP FOR EASTERN NORTH CAROLINA
NATIONAL WEATHER SERVICE NEWPORT/MOREHEAD CITY NC
300 AM EST SUN JAN 22 2017

NOTE: "FAIR" INDICATES FEW OR NO CLOUDS BELOW 12,000 FEET
WITH NO SIGNIFICANT WEATHER AND/OR OBSTRUCTIONS TO VISIBILITY

NCZ015>017-031-032-045>047-102-103-220900-
NORTH COAST

CITY           SKY/WX    TMP DP  RH WIND       PRES   REMARKS
EDENTON        FOG       52  52 100 CALM      29.64S VSB 1/4
ELIZABETH CITY FOG       56  56 100 SW5       29.62S VSB 1/4
KITTY HAWK     NOT AVBL
MANTEO         FOG       58  58 100 SW7       29.63F VSB 1/2

$$

NCZ045>047-081-094-103-104-220900-
CENTRAL COAST

CITY           SKY/WX    TMP DP  RH WIND       PRES   REMARKS
FRISCO         CLOUDY    62  59  90 W10G25    29.65R FOG

$$

NCZ095-097-098-100-101-220900-
SOUTHERN COAST

CITY           SKY/WX    TMP DP  RH WIND       PRES   REMARKS
BEAUFORT       CLEAR     60  57  89 W9        29.67R
CEDAR ISLAND   NOT AVBL
JACKSONVILLE   CLOUDY    61  59  93 SW7       29.67R
PINEY ISLAND   SUNNY    N/A N/A N/A SW10      29.66R
WILMINGTON     CLOUDY    59  58  96 SW8       29.69R


$$

NCZ011>013-027>030-043-044-078>080-089-090>093-098-220900-
COASTAL PLAIN

CITY           SKY/WX    TMP DP  RH WIND       PRES   REMARKS
AHOSKIE        DRZL/FOG  51  51  99 CALM      29.65R VSB 1/4
CLINTON        MOCLDY    61  60  97 SW7       29.66R
ELIZABETHTOWN  CLOUDY    61  60  96 SW6       29.67S
GOLDSBORO      MOCLDY    59  59 100 SW8       29.62S
GREENVILLE     FOG       55  55 100 S3        29.67S VSB 1/2
HAVELOCK       PTCLDY    61  57  87 SW12      29.67R
KENANSVILLE    CLOUDY    61  59  94 SW6       29.65F
KINSTON        CLOUDY    62  61  97 SW3       29.64S
NEW BERN       PTCLDY    59  58  96 SW8       29.66S
RICHLANDS      PTCLDY    59  57  94 SW9       29.67R
ROCKY MOUNT    FOG       55  55 100 CALM      29.63S VSB 1/2
WASHINGTON     CLOUDY    56  56  99 CALM        N/A  FOG
WHITEVILLE     CLOUDY    62  57  85 SW12G18   29.68R

$$

AMZ130-135-150-152-154-156-158-170-250-252-270-ANZ085-086-088-633-658-670-220900-
MARINE OBSERVATIONS

STATION/POSITION TIME  TEMP    WIND        PRES    WAVE   SWELL
                       AIR SEA DIR/SP/G            HT/PER HT/PER
                 (UTC) (F)     (DEG/KT/KT) (MB)    (FT/S) (FT/S)
CHESAPEAKE LIGHT NOT AVBL
64 E VA BEACH    0750   63 58  150/ 14/ 16 1002.1    5/12   3/12
DUCK             0800   60 46  200/ 10/ 13 1002.3
2 E DUCK         0800      46                N/A     3/13   2/13
OREGON INLET     0800          210/  5/  6   N/A
13E OREGON INLT  NOT AVBL
HATTERAS CG      0800   62 55  230/ 12/ 16 1003.6
DIAMOND BUOY     0750   72 73  240/ 21/ 27 1003.3    7/ 6   3/14
CAPE LOOKOUT     0800   60     260/ 11/ 13 1004.2
BEAUFORT LAB     0800   58 52  270/  4/  7 1003.6
30 SE NEW RVR IN 0808   63 66  260/ 17/ 23 1005.0
30 SE NEW RVR IN 0743      66                N/A     5/ 6   2/11
27 SE WRIGHTSVLE 0808   63 69  250/ 16/ 21 1004.9
5 SE WRIGHTSVLE  0808   57     250/ 12/ 16 1004.8
225 S CAPE HAT   0750   72 71  200/ 17/ 21 1007.1    6/ 6   2/11
41 SE CHARLESTON 0750   68 68  250/ 14/ 16 1005.3    4/ 6   2/11

$$




USA.gov is the U.S. government's official web portal to all federal, state and local government web resources and services.